Weather Roundup
Issued by NWS Chicago, IL

Home | Current Version | Previous Version | Text Only | Print | Product List | Glossary On
Versions: 1 2 3 4 5 6 7 8 9 10 11 12 13 14 15 16 17 18 19 20 21 22 23 24 25 26 27 28 29 30 31 32 33 34 35 36 37 38 39 40 41 42 43 44 45 46 47 48 49 50
000
NZUS59 KLOT 211409
HRRLOT

CHICAGO AREA WEATHER ROUNDUP
NATIONAL WEATHER SERVICE CHICAGO/ROMEOVILLE IL
900 AM CDT SAT OCT 21 2017

NOTE: "FAIR" INDICATES FEW OR NO CLOUDS BELOW 12,000 FEET WITH NO
SIGNIFICANT WEATHER AND/OR OBSTRUCTIONS TO VISIBILITY.

* THESE STATIONS ARE NOT UNDER NWS QUALITY CONTROL. THEY ALSO MAY NOT
  REPORT WEATHER SUCH AS PRECIPITATION OR FOG.

ILZ005-006-012>014-019>023-211500-
NORTHEAST ILLINOIS

CITY           SKY/WX    TMP DP  RH WIND       PRES   REMARKS
OHARE          CLOUDY    62  49  62 S16G24    30.07R
MIDWAY         PTSUNNY   63  50  62 S15G22    30.08R
AURORA         CLOUDY    61  51  70 S13G23    30.05R
LANSING*       MOSUNNY   60  51  73 S12       30.11R
JOLIET*        CLOUDY    62  51  68 S10       30.09R
WAUKEGAN       CLOUDY    62  50  64 S12       30.03S
DUPAGE AIRPORT CLOUDY    61  52  72 S15       30.06R
WHEELING       PTSUNNY   63  51  65 S15       30.07R
KANKAKEE*      CLOUDY    62  48  61 S10       30.11S
MORRIS*        CLOUDY    60  50  69 S9        30.06S
LEWIS AIRPORT* CLOUDY    59  50  72 S12       30.08R
NORTHERLY ISL    N/A     63  47  55 S10         N/A
$$

WIZ051-052-058>065-066-070>072-211500-
SOUTHEAST WISCONSIN

CITY           SKY/WX    TMP DP  RH WIND       PRES   REMARKS
MILWAUKEE      CLOUDY    63  49  60 S8        30.03S
KENOSHA*       CLOUDY    62  48  60 S10       30.03S
RACINE*        CLOUDY    61  51  70 S8        30.04S
BURLINGTON     CLOUDY    62  51  67 S10       30.02R
WAUKESHA       SUNNY     59  46  63 S8        30.03R
WEST BEND      CLOUDY    59  46  63 S6        30.00S
$$

INZ001>003-010>013-019-020-211500-
NORTHWEST INDIANA

CITY           SKY/WX    TMP DP  RH WIND       PRES   REMARKS
GARY*          PTSUNNY   63  46  55 S8G20     30.11S
MICHIGAN CITY* NOT AVBL
RENSSELAER*    NOT AVBL
VALPARAISO     PTSUNNY   60  50  69 S9        30.13S
$$

LMZ740>746-211500-
SOUTHERN LAKE MICHIGAN

STATION/POSITION TIME  SKY/WX   TEMP WIND        PRES    VSBY
                                AIR  DIR/SP/G
                 (UTC)          (F)  (DEG/KT/KT) (MB)    (MI)
HARRISON CRIB    1340            62  180/ 20/ 21   N/A
BURNHAM HARBOR   1400            63  190/  9/ 15   N/A
CALUMET HARBOR   1348            62  170/ 12/ 15 1018.1R
BURNS HARBOR     1340            62  180/ 14/ 21 1020.0R
MICHIGAN CITY    1340            61  170/ 13/ 19   N/A
$$

ABBREVIATIONS USED IN REMARKS
   TC - TEMPERATURE IN CELSIUS
  WCI - WIND CHILL INDEX
   HX - HEAT INDEX
  VSB - VISIBILITY
$$



USA.gov is the U.S. government's official web portal to all federal, state and local government web resources and services.